Home > Time Zones > World Clock > Weather > Spain > Cadiz > Past weeks

Flag for Spain Weather past 2 weeks in Cadiz, Cádiz, Spain

Now
70 °F

Passing clouds.


Feels Like: 70 °F
Forecast: 68 / 73 °F
Wind: 6 mph from Southwest

Location: Rota Airport

Current Time: Jul 31, 2014 at 8:14:23 AM

Latest Report: Jul 31, 2014 at 7:00 AM


Visibility: N/A

Pressure: 29.98 "Hg

Humidity: 78%

Dew point: 63 °F

Location of CadizLocation

Historic Weather in Cadiz — Graph

°F

Cadiz temperature yesterday

Maximum temperature yesterday: 79 °F (at 12:00 PM)
Minimum temperature yesterday: 68 °F (at 12:00 AM)
Average temperature yesterday: 72 °F

Past Weeks' High & Low Weather Summary

 TemperatureHumidityPressure
High93 °F (Jul 16, 1:00 PM)94% (Jul 18, 5:00 AM)30.09 "Hg (Jul 18, 5:00 AM)
Low61 °F (Jul 21, 7:00 AM)29% (Jul 22, 11:00 AM)29.83 "Hg (Jul 24, 8:00 PM)
Average74 °F71%29.97 "Hg
* Reported Jul 16 7:00 AM — Jul 31 7:00 AM, Cadiz, Weather by CustomWeather, © 2014

Note: Actual official high and low records may vary slightly from our data, if they occured in-between our weather recording intervals... More about our weather records

Advertising

Cadiz weather history for previous 24 hours

 ConditionsComfort  
Time TempWeatherWind HumidityBarometerVisibility
7:00 AM
Jul 31
70 °FPassing clouds.6 mph78%29.98 "HgN/A
6:00 AM70 °FPassing clouds.3 mph78%29.98 "HgN/A
5:00 AM70 °FPassing clouds.7 mph78%29.98 "HgN/A
4:00 AM70 °FPassing clouds.6 mph78%29.98 "HgN/A
3:00 AM68 °FPassing clouds.3 mph83%29.98 "HgN/A
2:00 AM68 °FPassing clouds.1 mph83%29.98 "HgN/A
1:00 AM68 °FClear.1 mph83%29.95 "Hg10 mi
12:00 AM70 °FClear.1 mph78%29.95 "Hg10 mi
11:00 PM
Jul 30
70 °FClear.5 mph78%29.95 "Hg10 mi
10:00 PM70 °FClear.7 mph78%29.92 "Hg5 mi
9:00 PM72 °FPassing clouds.12 mph78%29.92 "HgN/A
8:00 PM73 °FSunny.12 mph74%29.92 "Hg10 mi
7:00 PM75 °FPassing clouds.13 mph69%29.92 "HgN/A
6:00 PM75 °FPassing clouds.13 mph74%29.92 "HgN/A
5:00 PM77 °FPassing clouds.13 mph69%29.92 "HgN/A
4:00 PM77 °FPassing clouds.10 mph69%29.92 "HgN/A
3:00 PM77 °FPassing clouds.10 mph69%29.92 "HgN/A
2:00 PM79 °FSunny.9 mph65%29.92 "Hg10 mi
1:00 PM79 °FPassing clouds.5 mph65%29.95 "HgN/A
12:00 PM79 °FPassing clouds.2 mph65%29.95 "HgN/A
11:00 AM75 °FScattered clouds.3 mph69%29.92 "Hg6 mi
10:00 AM72 °FPartly sunny.7 mph73%29.92 "Hg6 mi
9:00 AM70 °FMore clouds than sun.3 mph78%29.92 "HgN/A
8:00 AM68 °FOvercast.1 mph83%29.92 "Hg6 mi
Weather by CustomWeather, © 2014

See weather overviewHow to use our weather pages